Location: Jablonec nad Nisou
(50.7170°N, 15.1830°E)
Time: 22:23:42
(UTC+02:00)

ISS - Pass Details

Date: 26 March 2019
Orbit: 408 x 410 km, 51.6° (Epoch: 24 April)

Event Time Altitude Azimuth Distance (km) Brightness Sun altitude
Rises 20:59:35 0° 272° (W) 2,335 0.9 -23.9°
Reaches altitude 10° 21:01:41 10° 274° (W) 1,474 -0.3 -24.2°
Enters shadow 21:03:36 32° 281° (WNW) 732 -2.1 -24.4°
